Weather History for K9MN - December, 2013

Change the Weather History Date:

Monday, December 16, 2013

  Actual Average (KRST) Record (KRST)
Temperature  
Mean Temperature 10 °F 19 °F  
Max Temperature 22 °F 27 °F 52 °F (1959)
Min Temperature 1 °F 12 °F -26 °F (1932)
Degree Days  
Heating Degree Days 55 46  
Month to date heating degree days 691  
Since 1 July heating degree days 2363  
Cooling Degree Days 0 0  
Month to date cooling degree days 0  
Year to date cooling degree days 585  
Moisture  
Dew Point 4 °F    
Average Humidity 75    
Maximum Humidity 90    
Minimum Humidity 59    
Precipitation  
Precipitation 0.00 in 0.04 in 0.60 in (1940)
Month to date precipitation 0.73  
Year to date precipitation 32.52  
Snow  
Snow 0.00 in 0.40 in 9.60 in (1940)
Month to date snowfall 6.8  
Since 1 July snowfall 13.7  
Snow Depth -    
Sea Level Pressure  
Sea Level Pressure 29.99 in    
Wind  
Wind Speed 6 mph (South)    
Max Wind Speed 14 mph    
Max Gust Speed 28 mph    
Visibility 8 miles    
Events      
T = Trace of Precipitation, MM = Missing Value Source: NWS Daily Summary

Daily Weather History Graph

Daily Weather History Graph

Search for Another Location

Airport or City:

Trip Planner

Search our weather history database for the weather conditions in past years. The results will help you decide how hot, cold, wet, or windy it might be!

Date:

Astronomy

Dec. 16, 2013 Rise Set
Actual Time 7:38 AM CST 4:32 PM CST
Civil Twilight 7:05 AM CST 5:05 PM CST
Nautical Twilight 6:29 AM CST 5:42 PM CST
Astronomical Twilight 5:53 AM CST 6:17 PM CST
Moon 4:25 PM CST (12/16) 6:45 AM CST (12/16)
Length of Visible Light 10h 00m
Length of Day
8h 54m
Full, 100% of the Moon is Illuminated
Dec 16
Full
Dec 17
Full
Dec 25
Last Quarter
Jan 1
New
Jan 7
First Quarter

Hourly Weather History & Observations

Time (CST) Temp. Windchill Dew Point Humidity Pressure Visibility Wind Dir Wind Speed Gust Speed Precip Events Conditions
12:13 AM 3.0 °F - -8.3 °F 59% 30.08 in 10.0 mi Calm Calm - N/A   Overcast
12:33 AM 1.8 °F -7.8 °F -9.2 °F 60% 30.07 in 10.0 mi ESE 4.6 mph - N/A   Overcast
12:53 AM 2.1 °F -5.4 °F -8.3 °F 62% 30.06 in 10.0 mi ESE 3.5 mph - N/A   Overcast
1:13 AM 2.3 °F -8.8 °F -8.0 °F 62% 30.06 in 10.0 mi East 5.8 mph - N/A   Overcast
1:33 AM 2.5 °F -7.0 °F -8.5 °F 60% 30.06 in 10.0 mi East 4.6 mph - N/A   Overcast
1:53 AM 2.3 °F -5.2 °F -8.9 °F 60% 30.06 in 10.0 mi ESE 3.5 mph - N/A   Overcast
2:13 AM 3.0 °F -6.4 °F -8.0 °F 60% 30.07 in 10.0 mi ESE 4.6 mph - N/A   Overcast
2:33 AM 2.3 °F -8.8 °F -8.3 °F 61% 30.06 in 10.0 mi ESE 5.8 mph - N/A   Overcast
2:53 AM 2.3 °F -11.4 °F -8.3 °F 61% 30.06 in 10.0 mi ESE 8.1 mph - N/A   Overcast
3:13 AM 2.3 °F -11.4 °F -8.5 °F 61% 30.05 in 10.0 mi ESE 8.1 mph - N/A   Overcast
3:33 AM 2.3 °F -8.8 °F -8.0 °F 62% 30.04 in 10.0 mi ESE 5.8 mph - N/A   Overcast
3:53 AM 3.0 °F -6.4 °F -7.4 °F 62% 30.03 in 10.0 mi SE 4.6 mph - N/A   Overcast
4:13 AM 3.9 °F -3.4 °F -6.3 °F 62% 30.05 in 10.0 mi South 3.5 mph - N/A   Overcast
4:33 AM 4.8 °F - -6.0 °F 61% 30.04 in 10.0 mi Calm Calm - N/A   Overcast
4:53 AM 4.1 °F -3.2 °F -6.2 °F 63% 30.03 in 10.0 mi ESE 3.5 mph - N/A   Overcast
5:13 AM 3.9 °F -5.3 °F -6.2 °F 63% 30.02 in 10.0 mi East 4.6 mph - N/A   Overcast
5:33 AM 4.1 °F -5.1 °F -5.8 °F 64% 30.02 in 10.0 mi ESE 4.6 mph - N/A   Overcast
5:53 AM 4.1 °F -6.7 °F -5.3 °F 65% 30.02 in 10.0 mi ESE 5.8 mph - N/A   Overcast
6:12 AM 4.1 °F -8.0 °F -4.9 °F 66% 30.02 in 10.0 mi ESE 6.9 mph - N/A   Overcast
6:33 AM 4.1 °F -11.1 °F -4.9 °F 66% 30.00 in 10.0 mi ESE 10.4 mph - N/A   Overcast
6:53 AM 4.6 °F -7.4 °F -4.2 °F 67% 30.01 in 10.0 mi SE 6.9 mph - N/A   Overcast
7:14 AM 5.0 °F -5.6 °F -3.8 °F 67% 30.01 in 10.0 mi ESE 5.8 mph - N/A   Overcast
7:33 AM 5.5 °F -5.0 °F -3.1 °F 68% 30.02 in 10.0 mi ESE 5.8 mph - N/A   Overcast
7:53 AM 5.2 °F -7.9 °F -3.3 °F 68% 30.01 in 10.0 mi ESE 8.1 mph - N/A   Overcast
8:13 AM 5.0 °F -8.1 °F -3.3 °F 69% 30.01 in 10.0 mi ESE 8.1 mph - N/A   Overcast
8:33 AM 5.2 °F -10.6 °F -3.1 °F 69% 29.99 in 10.0 mi ESE 11.5 mph - N/A   Overcast
8:53 AM 5.5 °F -7.4 °F -2.2 °F 70% 29.99 in 10.0 mi ESE 8.1 mph - N/A   Overcast
9:13 AM 6.4 °F -8.2 °F -0.2 °F 74% 29.99 in 1.2 mi ESE 10.4 mph - N/A   Overcast
9:33 AM 5.9 °F -8.9 °F 0.5 °F 78% 29.99 in 1.8 mi SE 10.4 mph - N/A   Overcast
9:53 AM 6.6 °F -0.3 °F 1.6 °F 80% 30.01 in 1.8 mi SE 3.5 mph - N/A   Overcast
10:13 AM 7.3 °F -4.1 °F 1.9 °F 79% 30.00 in 2.0 mi ESE 6.9 mph - N/A   Overcast
10:33 AM 7.7 °F -4.8 °F 2.5 °F 79% 30.00 in 0.8 mi SE 8.1 mph - N/A   Overcast
10:53 AM 8.1 °F -6.2 °F 3.2 °F 81% 29.98 in 3.0 mi SE 10.4 mph - N/A   Overcast
11:13 AM 8.6 °F -3.7 °F 2.7 °F 77% 29.98 in 5.0 mi SE 8.1 mph - N/A   Overcast
11:33 AM 9.0 °F -0.9 °F 3.6 °F 79% 29.98 in 1.2 mi SSE 5.8 mph - N/A   Overcast
11:53 AM 9.3 °F -2.8 °F 4.1 °F 79% 29.96 in 1.2 mi SSE 8.1 mph - N/A   Overcast
12:13 PM 10.2 °F 0.6 °F 4.8 °F 79% 29.95 in 4.0 mi South 5.8 mph - N/A   Overcast
12:33 PM 10.4 °F -3.3 °F 4.5 °F 77% 29.92 in 5.0 mi SE 10.4 mph 16.1 mph N/A   Overcast
12:53 PM 12.0 °F -1.3 °F 5.5 °F 75% 29.93 in 5.0 mi South 10.4 mph - N/A   Overcast
1:13 PM 12.9 °F 2.6 °F 7.3 °F 78% 29.95 in 5.0 mi SSW 6.9 mph - N/A   Overcast
1:33 PM 12.7 °F 5.0 °F 7.9 °F 81% 29.94 in 1.0 mi SSW 4.6 mph - N/A   Overcast
1:53 PM 14.2 °F 6.7 °F 8.8 °F 79% 29.94 in 4.0 mi SSW 4.6 mph - N/A   Overcast
2:13 PM 13.6 °F 7.7 °F 8.4 °F 80% 29.94 in 10.0 mi SSW 3.5 mph - N/A   Overcast
2:33 PM 14.5 °F 8.8 °F 8.8 °F 78% 29.95 in 10.0 mi SW 3.5 mph - N/A   Overcast
2:53 PM 14.2 °F 3.1 °F 8.2 °F 77% 29.95 in 10.0 mi SW 8.1 mph - N/A   Overcast
3:13 PM 15.4 °F 6.8 °F 9.5 °F 77% 29.96 in 10.0 mi SW 5.8 mph - N/A   Overcast
3:33 PM 16.2 °F 6.5 °F 10.0 °F 77% 29.97 in 10.0 mi WSW 6.9 mph - N/A   Overcast
3:53 PM 16.3 °F 6.7 °F 10.4 °F 77% 29.96 in 7.0 mi WSW 6.9 mph - N/A   Overcast
4:13 PM 16.3 °F 5.7 °F 10.9 °F 79% 29.97 in 7.0 mi WSW 8.1 mph - N/A   Overcast
4:33 PM 16.7 °F 5.3 °F 11.5 °F 80% 29.97 in 7.0 mi West 9.2 mph - N/A   Overcast
4:54 PM 17.2 °F 6.8 °F 12.2 °F 81% 29.97 in 7.0 mi WSW 8.1 mph - N/A   Overcast
5:13 PM 18.0 °F 7.7 °F 13.5 °F 83% 29.97 in 10.0 mi West 8.1 mph - N/A   Overcast
5:33 PM 18.0 °F 6.9 °F 13.3 °F 82% 29.97 in 10.0 mi West 9.2 mph - N/A   Overcast
5:53 PM 17.6 °F 6.4 °F 13.1 °F 83% 29.97 in 10.0 mi West 9.2 mph - N/A   Overcast
6:13 PM 17.2 °F 6.0 °F 13.1 °F 84% 29.98 in 10.0 mi West 9.2 mph - N/A   Overcast
6:33 PM 17.6 °F 8.2 °F 13.6 °F 84% 29.98 in 10.0 mi West 6.9 mph - N/A   Overcast
6:53 PM 17.1 °F 6.6 °F 13.1 °F 84% 29.97 in 10.0 mi WSW 8.1 mph - N/A   Overcast
7:13 PM 16.9 °F 4.8 °F 13.5 °F 86% 29.97 in 10.0 mi WSW 10.4 mph 16.1 mph N/A   Overcast
7:33 PM 16.5 °F 8.1 °F 12.9 °F 86% 29.98 in 10.0 mi WSW 5.8 mph - N/A   Overcast
7:53 PM 16.3 °F 6.7 °F 13.1 °F 87% 29.97 in 7.0 mi SW 6.9 mph - N/A   Overcast
8:13 PM 16.7 °F 8.3 °F 13.6 °F 88% 29.97 in 7.0 mi WSW 5.8 mph - N/A   Mostly Cloudy
8:33 PM 16.5 °F 6.9 °F 13.8 °F 89% 29.97 in 7.0 mi WSW 6.9 mph - N/A   Scattered Clouds
8:53 PM 16.5 °F 6.9 °F 14.0 °F 90% 29.95 in 7.0 mi SW 6.9 mph - N/A   Clear
9:13 PM 16.5 °F 5.1 °F 14.0 °F 90% 29.96 in 7.0 mi WSW 9.2 mph - N/A   Clear
9:33 PM 16.7 °F 8.3 °F 14.0 °F 89% 29.96 in 7.0 mi WSW 5.8 mph 17.3 mph N/A   Clear
9:53 PM 17.2 °F 8.9 °F 14.2 °F 88% 29.96 in 7.0 mi West 5.8 mph 21.9 mph N/A   Clear
10:13 PM 17.4 °F 7.1 °F 14.2 °F 87% 29.96 in 7.0 mi WSW 8.1 mph - N/A   Clear
10:33 PM 17.6 °F 7.3 °F 14.4 °F 87% 29.96 in 10.0 mi WSW 8.1 mph - N/A   Clear
10:53 PM 18.1 °F 8.9 °F 14.2 °F 84% 29.95 in 10.0 mi WSW 6.9 mph - N/A   Clear
11:13 PM 19.6 °F 8.9 °F 15.3 °F 83% 29.95 in 10.0 mi WSW 9.2 mph - N/A   Clear
11:53 PM 22.5 °F 9.9 °F 16.2 °F 77% 29.93 in 7.0 mi WSW 13.8 mph 27.6 mph N/A   Clear